Location: Lynch Observatory
(39.9540°N, 75.1861°W)
Time: 09:19:17
(UTC-04:00)

CAS-4B - Visible Passes

Search period start: 22 April 2024 00:00
Search period end: 02 May 2024 00:00
Orbit: 479 x 497 km, 43.0° (Epoch: 22 April)

Date Brightness Start Highest point End Pass type
(mag) Time Alt. Az. Time Alt. Az. Time Alt. Az.
22 Apr ? 04:04:13 61° NNW 04:04:19 62° N 04:08:07 10° ENE visible
22 Apr ? 05:39:53 10° WNW 05:43:39 56° N 05:47:27 10° E visible
23 Apr ? 03:39:05 45° NE 03:39:05 45° NE 03:41:57 10° ENE visible
23 Apr ? 05:13:43 10° WNW 05:17:30 56° N 05:21:17 10° E visible
24 Apr ? 03:13:56 26° ENE 03:13:56 26° ENE 03:15:44 10° ENE visible
24 Apr ? 04:48:16 15° WNW 04:51:16 56° N 04:55:03 10° E visible
25 Apr ? 02:48:48 14° ENE 02:48:48 14° ENE 02:49:27 10° ENE visible
25 Apr ? 04:23:07 26° WNW 04:25:00 56° N 04:28:46 10° E visible
26 Apr ? 03:57:59 48° NW 03:58:38 56° N 04:02:25 10° E visible
26 Apr ? 05:33:59 10° WNW 05:37:45 60° SSW 05:41:32 10° SE visible
27 Apr ? 03:32:56 47° NE 03:32:56 47° NE 03:36:00 10° E visible
27 Apr ? 05:07:35 10° WNW 05:11:21 61° SSW 05:15:07 10° SE visible
28 Apr ? 03:08:01 22° E 03:08:01 22° E 03:09:32 10° E visible
28 Apr ? 04:42:22 19° W 04:44:53 61° SSW 04:48:39 10° SE visible
29 Apr ? 04:17:40 50° WSW 04:18:21 61° SSW 04:22:07 10° SE visible
30 Apr ? 03:53:17 33° SE 03:53:17 33° SE 03:55:31 10° ESE visible
30 Apr ? 05:28:19 10° WSW 05:30:16 14° SW 05:32:15 10° S visible
01 May ? 05:03:41 14° SW 05:03:41 14° SW 05:05:38 10° S visible
01 May ? 21:57:32 10° SW 21:58:30 17° SW 21:58:30 17° SW visible
